Weather History for KAWM - January, 2012

Change the Weather History Date:

Sunday, January 15, 2012

  Actual Average Record
Temperature  
Mean Temperature 42 °F -  
Max Temperature 54 °F 46 °F 61 °F (1969)
Min Temperature 30 °F 28 °F 12 °F (1978)
Degree Days  
Heating Degree Days 23    
Moisture  
Dew Point 28 °F    
Average Humidity 59    
Maximum Humidity 76    
Minimum Humidity 40    
Precipitation  
Precipitation 0.00 in - - ()
Sea Level Pressure  
Sea Level Pressure 30.34 in    
Wind  
Wind Speed 8 mph (SE)    
Max Wind Speed 17 mph    
Max Gust Speed 28 mph    
Visibility 10 miles    
Events      
Averages and records for this station are not official NWS values.
T = Trace of Precipitation, MM = Missing Value Source: NWS Daily Summary

Daily Weather History Graph

Daily Weather History Graph

Search for Another Location

Airport or City:

Trip Planner

Search our weather history database for the weather conditions in past years. The results will help you decide how hot, cold, wet, or windy it might be!

Date:

Astronomy

Jan. 15, 2012 Rise Set
Actual Time 7:08 AM CST 5:11 PM CST
Civil Twilight 6:41 AM CST 5:39 PM CST
Nautical Twilight 6:10 AM CST 6:10 PM CST
Astronomical Twilight 5:39 AM CST 6:41 PM CST
Moon No Moon Rise 10:45 AM CST (1/15)
Length of Visible Light 10h 58m
Length of Day
10h 02m
Waning Gibbous, 57% of the Moon is Illuminated
Jan 15
Waning Gibbous
Jan 16
Last Quarter
Jan 23
New
Jan 30
First Quarter
Feb 7
Full

Hourly Weather History & Observations

Time (CST) Temp. Windchill Dew Point Humidity Pressure Visibility Wind Dir Wind Speed Gust Speed Precip Events Conditions
12:53 AM 33.1 °F 26.9 °F 26.1 °F 75% 30.34 in 10.0 mi NE 6.9 mph - N/A   Clear
1:53 AM 33.1 °F 28.7 °F 26.1 °F 75% 30.36 in 10.0 mi NE 4.6 mph - N/A   Clear
2:53 AM 33.1 °F 28.7 °F 24.1 °F 70% 30.37 in 10.0 mi ENE 4.6 mph - N/A   Clear
4:53 AM 32.0 °F 26.4 °F 23.0 °F 69% 30.39 in 10.0 mi East 5.8 mph - N/A   Clear
5:53 AM 32.0 °F 25.6 °F 21.9 °F 66% 30.40 in 10.0 mi East 6.9 mph - N/A   Clear
6:53 AM 30.0 °F 26.5 °F 21.9 °F 72% 30.42 in 10.0 mi ESE 3.5 mph - N/A   Clear
7:53 AM 30.9 °F 25.2 °F 24.1 °F 76% 30.45 in 10.0 mi SSE 5.8 mph - N/A   Clear
8:53 AM 35.1 °F 29.3 °F 25.0 °F 67% 30.47 in 10.0 mi SSE 6.9 mph - N/A   Clear
9:53 AM 39.0 °F 33.4 °F 25.0 °F 57% 30.47 in 10.0 mi South 8.1 mph - N/A   Clear
10:53 AM 44.1 °F 38.6 °F 26.1 °F 49% 30.45 in 10.0 mi SE 10.4 mph - N/A   Clear
11:53 AM 46.9 °F - 27.0 °F 46% 30.41 in 10.0 mi South 10.4 mph - N/A   Clear
12:53 PM 48.9 °F - 27.0 °F 43% 30.37 in 10.0 mi SSE 9.2 mph - N/A   Clear
1:53 PM 53.1 °F - 28.9 °F 40% 30.33 in 10.0 mi SSE 12.7 mph - N/A   Clear
2:53 PM 53.1 °F - 30.0 °F 41% 30.32 in 10.0 mi South 11.5 mph - N/A   Clear
3:53 PM 54.0 °F - 32.0 °F 43% 30.30 in 10.0 mi South 9.2 mph - N/A   Clear
4:53 PM 48.0 °F - 34.0 °F 58% 30.29 in 10.0 mi South 8.1 mph - N/A   Clear
5:53 PM 42.1 °F 37.7 °F 32.0 °F 67% 30.27 in 10.0 mi SSE 6.9 mph - N/A   Clear
6:53 PM 42.1 °F 37.1 °F 32.0 °F 67% 30.27 in 10.0 mi SSE 8.1 mph - N/A   Clear
7:53 PM 42.1 °F 36.6 °F 33.1 °F 70% 30.26 in 10.0 mi SSE 9.2 mph - N/A   Clear
8:53 PM 50.0 °F - 34.0 °F 54% 30.24 in 10.0 mi SSE 16.1 mph - N/A   Clear
9:53 PM 50.0 °F - 33.1 °F 52% 30.23 in 10.0 mi SSE 13.8 mph - N/A   Clear
10:53 PM 48.0 °F - 34.0 °F 58% 30.22 in 10.0 mi South 12.7 mph - N/A   Clear
11:53 PM 53.1 °F - 35.1 °F 50% 30.21 in 10.0 mi SSW 17.3 mph 27.6 mph N/A   Partly Cloudy